Simultaneous Nadir Overpasses (SNOs) Predictions

Prediction of SNOs between AQUA and NOAA-19 Satellite Orbit:

Table of predicted SNOs for the next 14.0 days since TLE Epoch: 11/11/2023
Index Date (AQUA) Time (AQUA) Lat,Lon (AQUA) SZA (AQUA ) Date (NOAA-19) Time (NOAA-19) Lat,Lon (NOAA-19) SZA (NOAA-19 ) Distance(km) Time Diff (sec)
1 11/12/2023 03:27:44 76.09, 121.35 93.63 11/12/2023 03:27:36 76.09, 121.35 93.63 0.20 8
2 11/12/2023 04:17:14 -76.43, -72.11 86.01 11/12/2023 04:18:22 -76.47, -69.92 85.99 57.45 68
3 11/14/2023 08:08:54 76.12, 51.01 94.24 11/14/2023 08:08:53 76.11, 51.14 94.23 3.55 1
4 11/16/2023 12:50:02 76.09, -19.17 94.78 11/16/2023 12:50:10 76.11, -19.11 94.80 2.52 8
5 11/18/2023 16:41:41 -75.88, 103.60 84.92 11/18/2023 16:40:30 -75.82, 102.35 84.96 34.68 71
6 11/18/2023 17:31:09 76.07, -89.36 95.29 11/18/2023 17:31:27 76.10, -89.39 95.32 3.38 18
7 11/20/2023 21:22:51 -76.05, 32.81 84.24 11/20/2023 21:21:42 -76.04, 32.87 84.25 2.21 69
8 11/20/2023 22:12:16 76.10,-159.70 95.83 11/20/2023 22:12:44 76.09,-159.71 95.81 2.09 28
9 11/23/2023 02:03:56 -76.03, -37.36 83.78 11/23/2023 02:02:59 -76.02, -37.44 83.78 2.20 57



Historial Predications of SNOs between AQUA and NOAA-19
